Regional Weather Roundup
Issued by NWS Wakefield, VA

Home | Current Version | Previous Version | Graphics & Text | Print | Product List | Glossary On
Versions: 1 2 3 4 5 6 7 8 9 10 11 12 13 14 15 16 17 18 19 20 21 22 23 24 25 26 27 28 29 30 31 32 33 34 35 36 37 38 39 40 41 42 43 44 45 46 47 48 49 50
000
ASUS41 KAKQ 310610
RWRAKQ

REGIONAL WEATHER ROUNDUP
NATIONAL WEATHER SERVICE WAKEFIELD VA
200 AM EDT THU JUL 31 2014

Note: "fair" indicates few or no clouds below 12,000 feet with no
significant weather and/or obstructions to visibility. * = Denotes
station may not report precipitation (e.g., rain,snow,etc.),
thunder or fog.

VAZ042-051-052>054-056-310700-
NORTHERN VIRGINIA

CITY           SKY/WX    TMP DP  RH WIND       PRES   REMARKS
WASH NATIONAL  CLEAR     69  58  67 S7        30.08R
DULLES         CLOUDY    64  58  80 NW6       30.08R
FORT BELVOIR   CLEAR     59  58  95 CALM      30.08S
QUANTICO       CLEAR     64  60  87 NW6       30.09R
FREDERICKSBRG* CLEAR     62  60  94 CALM      30.08R
STAFFORD*      CLEAR     56  56 100 CALM      30.12S FOG
WARRENTON      MOCLDY    60  60 100 CALM      30.07F
CULPEPER*      CLEAR    N/A N/A N/A CALM      30.08S HAZE
MANASSAS*      NOT AVBL
LEESBURG*      CLOUDY    64  61  88 CALM      30.08S
WINCHESTER     CLOUDY    63  59  88 CALM      30.08S
$$

VAZ048-049-060>072-079>083-310700-
CENTRAL AND SOUTH CENTRAL VIRGINIA...AND NORTH CENTRAL NORTH CAROLINA

CITY           SKY/WX    TMP DP  RH WIND       PRES   REMARKS
RICHMOND       CLEAR     66  60  81 SE5       30.09R
CHESTERFIELD*  CLEAR     63  52  67 CALM      30.11R
HANOVER        FAIR      60  56  86 CALM      30.10S
TAPPAHANNOCK*  FAIR      61  58  89 S3        30.10R
CHARLOTTSVILLE CLEAR     61  58  90 CALM      30.09R
ORANGE*        CLEAR     59  55  88 CALM      30.10R
LOUISA*        CLEAR     59  55  88 CALM      30.08S
FARMVILLE*     CLEAR     59  57  94 CALM      30.08S FOG
SOUTH HILL*    CLEAR     63  63 100 CALM      30.15S
ROANOKE RAPIDS NOT AVBL
RALEIGH        CLOUDY    70  64  81 S3        30.09S
$$

VAZ088>098-310700-
SOUTHEAST VIRGINIA

CITY           SKY/WX    TMP DP  RH WIND       PRES   REMARKS
NORFOLK        CLEAR     68  61  78 S5        30.09R
VIRGINIA BEACH CLEAR     66  61  84 CALM      30.08S
NORFOLK NAVAL  PTCLDY    71  62  73 CALM      30.10S
WEST POINT*    CLEAR     71  62  75 CALM      30.10S
NEWPORT NEWS   CLEAR     67  61  81 CALM      30.09S
LANGLEY AFB    PTCLDY    70  64  81 SW5       30.09R
FORT EUSTIS    CLOUDY    71  63  74 SE5       30.08R
WILLIAMSBURG*  CLEAR     72  64  78 S6        30.10S
FRANKLIN*      CLEAR     64  63  94 CALM      30.09S
WAKEFIELD      CLEAR     66  62  87 CALM      30.09S
$$

VAZ020-022-025-037-045-310700-
WESTERN AND SOUTHWEST VIRGINIA

CITY           SKY/WX    TMP DP  RH WIND       PRES   REMARKS
STAUNTON*      CLEAR     57  54  90 CALM      30.12S
HOT SPRINGS VA CLEAR     54  48  80 W8        30.21S
LYNCHBURG      CLEAR     60  59  96 CALM      30.13R
DANVILLE       PTCLDY    63  60  90 CALM      30.10S
MARTINSVILLE   MOCLDY    58  58  97 CALM      30.14R
ROANOKE        PTCLDY    61  56  83 CALM      30.14S
BLACKSBURG     CLEAR     55  55 100 CALM        N/A
DUBLIN*        PTCLDY    57  55  93 CALM      30.17S
MARION*        PTCLDY    55  53  93 CALM      30.20S
HILLSVILLE*    PTCLDY    60  53  77 S3        30.18S
RICHLANDS*     MOCLDY    62  56  80 CALM      30.17S
WISE*          MOCLDY    59  55  88 CALM      30.18S
ABINGDON*      MOCLDY    59  57  92 CALM      30.16S
$$

MDZ021>025-VAZ099-100-310700-
SOUTHERN MARYLAND AND THE DELMARVA PENINSULA

CITY           SKY/WX    TMP DP  RH WIND       PRES   REMARKS
PATUXENT RIVER CLEAR     66  59  78 S6        30.08R
BAY BRIDGE APT   N/A     70  59  68 S5        30.07S
LEONARDTOWN    CLEAR     64  59  82 S3        30.09S
DOVER          CLEAR     62  59  91 S6        30.06R
GEORGETOWN     CLEAR     62  57  83 S7        30.09S
EASTON         CLEAR     66  60  79 CALM      30.11S
CAMBRIDGE      CLEAR     61  57  88 CALM      30.08R
SALISBURY      CLEAR     61  53  75 CALM      30.09R
OCEAN CITY     CLEAR     58  56  93 NW3       30.09R
WALLOPS ISLAND CLEAR     66  60  81 CALM      30.10R
ACCOMACK*        N/A     61  59  94 CALM      30.09S
$$

NCZ012>017-030>032-310700-
EASTERN NORTH CAROLINA

CITY           SKY/WX    TMP DP  RH WIND       PRES   REMARKS
ELIZABETH CITY PTCLDY    71  61  70 CALM      30.09S
AHOSKIE*       PTCLDY    65  62  89 CALM      30.09S
EDENTON*       PTCLDY    69  64  82 SE5       30.08F
CURRITUCK*     PTCLDY    64  57  76 CALM      30.10S
KILL DEVIL HLS PTCLDY    72  61  68 SE5       30.07F
MANTEO         NOT AVBL
CAPE HATTERAS  CLOUDY    73  65  75 NE6       30.08F
GOLDSBORO      MOCLDY    69  69  98 CALM      30.07S
WASHINGTON     CLOUDY    68  63  84 CALM      30.08F
GREENVILLE     MOCLDY    70  64  83 CALM      30.10S
NEW BERN       CLOUDY    70  66  87 CALM      30.08F
WILMINGTON     CLEAR     72  69  90 CALM      30.05F
$$

VAZ048-310700-
ELSEWHERE

CITY           SKY/WX    TMP DP  RH WIND       PRES   REMARKS
HARRISBURG PA  CLOUDY    65  61  87 SE3       30.06S
BALTIMORE      PTCLDY    62  55  77 SW3       30.07R
ANNAPOLIS      CLEAR     66  58  75 CALM      30.06S
ANDREWS AFB    CLEAR     63  56  78 S7        30.07S
WILMINGTON DE  CLEAR     65  58  78 CALM      30.07S
PHILADELPHIA   CLEAR     67  57  70 CALM      30.07S
WILDWOOD NJ*   CLEAR     63  55  77 CALM      30.09S
ATLANTIC CITY  CLEAR     64  58  80 SW5       30.08R
HENDERSON NC   CLOUDY    64  62  94 CALM      30.09S FOG
GREENSBORO     MOCLDY    68  62  81 S3        30.09S
ROCKY MOUNT    MOCLDY    68  64  87 CALM      30.08F
FAYETTEVILLE   CLOUDY    74  65  73 NW5       30.08S
CHARLOTTE      CLOUDY    70  64  81 CALM      30.09S
$$

VAZ100-310700-
MARINE

STATION/POSITION TIME  TEMP    WIND        PRES    WAVE   SWELL
                       AIR SEA DIR/SP/G            HT/PER HT/PER
                 (UTC) (F)     (DEG/KT/KT) (MB)    (FT/S) (FT/S)
44066 TX TWR #4  0600   72 74  210/  6/  8 1018.5R   3/ 7   3/ 7
CAPE MAY NJ      0600   68 75  160/  4/  5 1018.1S
LEWES DE         0600   66 72  210/  4/  6 1018.3S
15NM E FENWICK I 0600   73 73              1018.9R   2/ 9
OCEAN-CITY-INLET 0600   67 71  300/  3/  4 1018.4R
WACHAPREAGUE VA  0600   71 80  240/  3/  4 1018.7S
THOMAS POINT MD  0600   73 77  220/  8/  9 1018.6F
GOOSES REEF MD   0600   74     210/ 12/ 14 1018.8S
COVE POINT MD    0600   72     200/  8/ 10 1018.3R
SOLOMONS ISLAND  0600      80                N/A
BISHOPS HEAD MD  0600   74 76  180/  7/  8 1018.2R
PINEY POINT MD   0600          200/  8/  9   N/A
POTOMAC MD       0600   74     220/ 12/ 14 1017.9S
CAMBRIDGE MD     0600   68 79  180/  3/  4 1018.2R
LEWISETTA VA     0600   68 77  230/  5/  6 1018.4S
RAPPAHANNOCK LGT 0600          180/ 12/ 13 1019.1S
STINGRAY PT      0600   74     210/ 10/ 12 1019.2R
YORK RVR RNG VA  0600   74     210/  8/ 10 1018.3R
YORKTOWN VA      0600   71 79  200/  6/  8 1018.5S
JAMESTOWN VA     0600   70     200/ 10/ 12   N/A
DOMINION TERM VA 0600   73     180/ 10/ 12 1018.7S
KIPTOPEKE VA     0600      80  190/  9/ 11   N/A
CHES BAY BRIDGE  0600   72 76  160/  7/  9 1018.2S
CAPE HENRY VA    0600   71     180/  6/  7 1017.6S
WILLOUBY STN VA  0600          190/  7/ 10 1018.0S
S CRANEY ISL VA  0600          170/  6/  8 1018.8S
CAPE HENRY BUOY  0500      76                N/A     2/ 8
1ST LANDING BUOY 0600   73     190/  6/ 10 1018.5R
CAPE CHARLES BUO 0600      77                N/A     2/ 7
OFFSHORE WE BUOY 0500      78                N/A     2/ 8
64NM E OF VA BCH 0600   75 78  130/  8/ 10 1018.6S   2/ 8   2/ 8
DUCK PIER NC     0600   74 76  140/ 11/ 12 1017.9S
44056 DUCK FRF   0500                        N/A     2/ 7
OREGON INLET NC  0600   74 80  100/  5/ 10 1018.7S
HATTERAS NC      0600   74 80   80/  4/  5 1018.8F
DIAMOND SHLS NC  0600          VRB  8/ 10  1018.2F   4/ 7   3/ 7
CAPE LOOKOUT NC  0500   79      80/ 11/ 12 1018.2R
$$


USA.gov is the U.S. government's official web portal to all federal, state and local government web resources and services.